Location: Carnières
(50.1682°N, 3.3474°E)
Time: 13:53:15
(UTC+00:00)

EXPRESS MD2 - Pass Details

Date: 23 May 2024
Orbit: 262 x 3333 km, 49.9° (Epoch: 16 June)

Event Time Altitude Azimuth Distance (km) Brightness Sun altitude
Exits shadow 01:24:20 18° 140° (SE) 1,025 4.5 -15.7°
Maximum altitude 01:24:27 18° 137° (SE) 1,034 4.5 -15.7°
Drops below altitude 10° 01:27:03 10° 91° (E) 1,725 6.2 -15.6°
Sets 01:30:25 0° 74° (ENE) 3,093 7.8 -15.3°
